P/L 153 DEB, 19245

Orbit data source: Space-Track

P/L 153 DEB, 19245 is space debris in LEO originally from a launch on Wed, 31 May 1967 UTC launched from the Air Force Western Test Range (AFWTR). Debris objects in space refer to the collection of defunct objects orbiting the Earth. Examples of debris include non-operational satellites, rocket bodies, and fragments generated from explosions, collisions, or faulty payload assembly.

Loading next visibility...
Identifier
19245, 1967-053K
Orbit
LEO
Country
Flag of USUS
Related business
Manufacturer
Unknown
Mission
Spacecraft
Bus & Motor
Unknown
Mass
Unknown
Launch date (UTC)
1967-05-31 (59 years ago)
Launch vehicle
Unknown
Launch site
Air Force Western Test Range (AFWTR)
Object type
Payload
Rocket body
Debris
Shape & HBR
Unknown shape, 0.1 m
Radar Cross Section
Small (<0.1 m²)

Expand to show TLE details & history
Last TLE update: 7 hours ago

TLE from 7 hours ago
0 P/L 153 DEB
1 19245U 67053K   26120.32154948  .00000777  00000-0  37049-3 0  9996
2 19245  69.9559  85.1083 0005949 220.0062 289.4496 14.22931812 23505
Epoch: 2026-04-30T07:43Z
TLE epoch observation values (Epoch: 2026-04-30T07:43:01.875Z)
Latitude
28.63272°
Longitude
-80.34715°
Altitude
816.989 km
Speed
7.448 km/s
True Right ascension
16h 54m 43s
True Declination
28° 29' 22"
Sunlit
Object was in full shadow at epoch
Visualization orbit readout
Latitude
Unknown
Longitude
Unknown
Altitude
Unknown
Speed
Unknown
Apparent Right ascension
Unknown
Apparent Declination
Unknown
Sunlit
N/A
Visualization observer readout
Local Sidereal Time
21:57:40
Azimuth
Unknown
Elevation
Unknown
Doppler factor
Unknown
Orbital elements
Apogee altitude
817.755 km
Perigee altitude
809.199 km
Semi-major axis
7,191.614 km
Eccentricity
0.00059
Inclination
69.9559°
RAAN
85.1083°
Arg. of periapsis
220.0062°
True anomaly
289.3853°
Mean anomaly
289.4496°
Eccentric anomaly
289.41745°
Mean motion
3.5588 °/min
Orbital period
101.16 mins
BSTAR
0.00037049
Loading maneuver chart data...
Computing Atmospheric mass density...
Loading historical data...
Loading historical data...
Loading historical data...
Loading historical data...
Loading historical data...
Loading historical data...
Loading historical data...

Documentation

Showing up to 5 results
|